TimeCET,TemperatureF,Dew PointF,Humidity,Sea Level PressureIn,VisibilityMPH,Wind Direction,Wind SpeedMPH,Gust SpeedMPH,PrecipitationIn,Events,Conditions,WindDirDegrees,DateUTC
12:00 AM,41.0,39.2,93,29.53,6.2,ESE,3.5,-,N/A,Rain,Light Rain,120,2013-01-20 23:00:00
5:30 AM,41.0,39.2,93,29.59,6.2,Variable,1.2,-,N/A,Rain,Rain,0,2013-01-21 04:30:00
6:00 AM,41.0,39.2,93,29.59,6.2,Variable,2.3,-,N/A,Rain,Rain,0,2013-01-21 05:00:00
6:30 AM,41.0,37.4,87,29.59,6.2,NNW,9.2,-,N/A,Rain,Rain,330,2013-01-21 05:30:00
7:30 AM,41.0,35.6,81,29.62,6.2,NW,9.2,-,N/A,,Overcast,320,2013-01-21 06:30:00
8:00 AM,41.0,35.6,81,29.65,6.2,NNW,8.1,-,N/A,,Overcast,330,2013-01-21 07:00:00
8:30 AM,41.0,35.6,81,29.65,6.2,NW,12.7,-,N/A,,Overcast,320,2013-01-21 07:30:00
9:00 AM,41.0,35.6,81,29.68,6.2,NW,9.2,-,N/A,,Overcast,320,2013-01-21 08:00:00
9:30 AM,41.0,37.4,87,29.68,6.2,North,8.1,-,N/A,,Mostly Cloudy,360,2013-01-21 08:30:00
10:00 AM,41.0,35.6,81,29.71,6.2,North,6.9,-,N/A,,Mostly Cloudy,350,2013-01-21 09:00:00
10:30 AM,41.0,35.6,81,29.71,6.2,NW,16.1,27.6,N/A,,Mostly Cloudy,310,2013-01-21 09:30:00
11:00 AM,41.0,35.6,81,29.74,6.2,NNW,11.5,-,N/A,,Mostly Cloudy,330,2013-01-21 10:00:00
11:30 AM,41.0,35.6,81,29.74,6.2,NNW,6.9,-,N/A,,Mostly Cloudy,330,2013-01-21 10:30:00
12:00 PM,44.6,33.8,66,29.74,6.2,WNW,10.4,24.2,N/A,,Mostly Cloudy,290,2013-01-21 11:00:00
1:00 PM,44.6,33.8,66,29.74,6.2,NW,13.8,28.8,N/A,,Mostly Cloudy,310,2013-01-21 12:00:00
1:30 PM,44.6,35.6,71,29.74,6.2,NW,16.1,28.8,N/A,,Mostly Cloudy,320,2013-01-21 12:30:00
2:00 PM,44.6,33.8,66,29.74,6.2,NW,15.0,-,N/A,,Mostly Cloudy,310,2013-01-21 13:00:00
2:30 PM,44.6,30.2,57,29.77,6.2,WNW,12.7,-,N/A,,Mostly Cloudy,290,2013-01-21 13:30:00
3:00 PM,42.8,33.8,70,29.77,6.2,NW,11.5,-,N/A,,Mostly Cloudy,320,2013-01-21 14:00:00
3:30 PM,42.8,32.0,66,29.77,6.2,NW,11.5,23.0,N/A,,Mostly Cloudy,320,2013-01-21 14:30:00
4:00 PM,42.8,33.8,70,29.77,6.2,NNW,12.7,-,N/A,,Mostly Cloudy,330,2013-01-21 15:00:00
4:30 PM,42.8,33.8,70,29.80,6.2,NNW,12.7,-,N/A,,Mostly Cloudy,330,2013-01-21 15:30:00
5:00 PM,42.8,35.6,76,29.80,6.2,NNW,11.5,-,N/A,,Scattered Clouds,330,2013-01-21 16:00:00
5:30 PM,42.8,33.8,70,29.80,6.2,NW,8.1,-,N/A,,Scattered Clouds,320,2013-01-21 16:30:00
6:00 PM,42.8,32.0,66,29.80,6.2,WNW,4.6,-,N/A,,Scattered Clouds,290,2013-01-21 17:00:00
6:30 PM,39.2,32.0,75,29.80,6.2,Variable,1.2,-,N/A,,Scattered Clouds,0,2013-01-21 17:30:00
7:00 PM,41.0,32.0,70,29.80,-9999.0,NNW,1.2,-,N/A,,Clear,330,2013-01-21 18:00:00
7:30 PM,39.2,32.0,75,29.83,-9999.0,SW,1.2,-,N/A,,Clear,220,2013-01-21 18:30:00
8:00 PM,35.6,32.0,87,29.83,-9999.0,SE,2.3,-,N/A,,Clear,140,2013-01-21 19:00:00
8:30 PM,37.4,32.0,81,29.83,-9999.0,SSE,4.6,-,N/A,,Clear,160,2013-01-21 19:30:00
9:00 PM,35.6,32.0,87,29.83,6.2,Variable,1.2,-,N/A,,Scattered Clouds,0,2013-01-21 20:00:00
9:30 PM,33.8,32.0,93,29.83,6.2,South,3.5,-,N/A,,Scattered Clouds,170,2013-01-21 20:30:00
10:00 PM,33.8,32.0,93,29.83,6.2,Variable,2.3,-,N/A,,Scattered Clouds,0,2013-01-21 21:00:00
10:30 PM,33.8,32.0,93,29.83,6.2,South,2.3,-,N/A,,Scattered Clouds,170,2013-01-21 21:30:00
11:00 PM,33.8,32.0,93,29.83,6.2,Calm,Calm,-,N/A,,Scattered Clouds,0,2013-01-21 22:00:00
11:30 PM,33.8,32.0,93,29.80,6.2,SE,3.5,-,N/A,,Scattered Clouds,130,2013-01-21 22:30:00